Time,TemperatureF,DewpointF,PressureIn,WindDirection,WindDirectionDegrees,WindSpeedMPH,WindSpeedGustMPH,Humidity,HourlyPrecipIn,Conditions,Clouds,dailyrainin,SoftwareType,DateUTC
2013-03-10 00:02:00,21.0,20.0,-100.00,South,170,1.0,3.0,95,0.00,,,-99.99,,2013-03-10 07:02:00,
2013-03-10 00:11:00,20.0,19.0,-100.00,East,90,0.0,0.0,95,0.00,,,-99.99,,2013-03-10 07:11:00,
2013-03-10 00:21:00,19.0,18.0,-100.00,SSE,155,0.0,0.0,95,0.00,,,-99.99,,2013-03-10 07:21:00,
2013-03-10 00:32:00,19.0,18.0,-100.00,SSE,155,0.0,0.0,95,0.00,,,-99.99,,2013-03-10 07:32:00,
2013-03-10 00:42:00,18.0,17.0,-100.00,SSW,210,1.0,6.0,95,0.00,,,-99.99,,2013-03-10 07:42:00,
2013-03-10 00:52:00,18.0,17.0,-100.00,South,185,0.0,7.0,95,0.00,,,-99.99,,2013-03-10 07:52:00,
2013-03-10 01:01:00,18.0,17.0,-100.00,SSE,160,2.0,6.0,95,0.00,,,-99.99,,2013-03-10 08:01:00,
2013-03-10 01:11:00,17.0,16.0,-100.00,SSE,155,1.0,4.0,95,0.00,,,-99.99,,2013-03-10 08:11:00,
2013-03-10 01:21:00,17.0,16.0,-100.00,SSE,150,7.0,9.0,95,0.00,,,-99.99,,2013-03-10 08:21:00,
2013-03-10 01:31:00,17.0,16.0,-100.00,South,190,3.0,9.0,95,0.00,,,-99.99,,2013-03-10 08:31:00,
2013-03-10 01:42:00,17.0,16.0,-100.00,SSW,205,1.0,6.0,95,0.00,,,-99.99,,2013-03-10 08:42:00,
2013-03-10 01:51:00,17.0,16.0,-100.00,SSW,195,1.0,3.0,95,0.00,,,-99.99,,2013-03-10 08:51:00,
2013-03-10 03:01:00,17.0,16.0,-100.00,SSE,150,3.0,4.0,95,0.00,,,-99.99,,2013-03-10 09:01:00,
2013-03-10 03:11:00,17.0,16.0,-100.00,SSE,160,4.0,6.0,95,0.00,,,-99.99,,2013-03-10 09:11:00,
2013-03-10 03:21:00,16.0,15.0,-100.00,SSE,165,4.0,6.0,95,0.00,,,-99.99,,2013-03-10 09:21:00,
2013-03-10 03:31:00,16.0,15.0,-100.00,SE,140,3.0,5.0,95,0.00,,,-99.99,,2013-03-10 09:31:00,
2013-03-10 03:41:00,15.0,14.0,-100.00,South,185,0.0,3.0,95,0.00,,,-99.99,,2013-03-10 09:41:00,
2013-03-10 03:51:00,15.0,14.0,-100.00,SSE,150,0.0,0.0,95,0.00,,,-99.99,,2013-03-10 09:51:00,
2013-03-10 04:01:00,14.0,13.0,-100.00,SSE,160,0.0,0.0,95,0.00,,,-99.99,,2013-03-10 10:01:00,
2013-03-10 04:11:00,14.0,13.0,-100.00,SSE,150,0.0,4.0,95,0.00,,,-99.99,,2013-03-10 10:11:00,
2013-03-10 04:21:00,14.0,13.0,-100.00,SE,145,2.0,4.0,95,0.00,,,-99.99,,2013-03-10 10:21:00,
2013-03-10 04:32:00,13.0,12.0,-100.00,South,175,3.0,6.0,95,0.00,,,-99.99,,2013-03-10 10:32:00,
2013-03-10 04:41:00,13.0,12.0,-100.00,South,170,2.0,7.0,95,0.00,,,-99.99,,2013-03-10 10:41:00,
2013-03-10 04:52:00,14.0,13.0,-100.00,ENE,75,4.0,7.0,95,0.00,,,-99.99,,2013-03-10 10:52:00,
2013-03-10 05:01:00,13.0,12.0,-100.00,ESE,115,4.0,5.0,95,0.00,,,-99.99,,2013-03-10 11:01:00,
2013-03-10 05:12:00,12.0,11.0,-100.00,SSE,160,2.0,6.0,94,0.00,,,-99.99,,2013-03-10 11:12:00,
2013-03-10 05:21:00,12.0,11.0,-100.00,SSE,155,3.0,6.0,94,0.00,,,-99.99,,2013-03-10 11:21:00,
2013-03-10 05:32:00,11.0,10.0,-100.00,South,180,3.0,6.0,94,0.00,,,-99.99,,2013-03-10 11:32:00,
2013-03-10 05:42:00,11.0,10.0,-100.00,SSE,160,6.0,9.0,94,0.00,,,-99.99,,2013-03-10 11:42:00,
2013-03-10 05:52:00,11.0,10.0,-100.00,South,170,4.0,8.0,94,0.00,,,-99.99,,2013-03-10 11:52:00,
2013-03-10 06:01:00,11.0,9.0,-100.00,SSE,155,7.0,9.0,94,0.00,,,-99.99,,2013-03-10 12:01:00,
2013-03-10 06:11:00,10.0,9.0,-100.00,SSE,155,6.0,9.0,94,0.00,,,-99.99,,2013-03-10 12:11:00,
2013-03-10 06:21:00,10.0,8.0,-100.00,SSE,160,4.0,9.0,94,0.00,,,-99.99,,2013-03-10 12:21:00,
2013-03-10 06:31:00,9.0,7.0,-100.00,SSE,160,6.0,7.0,94,0.00,,,-99.99,,2013-03-10 12:31:00,
2013-03-10 06:42:00,9.0,7.0,-100.00,SSE,150,7.0,11.0,94,0.00,,,-99.99,,2013-03-10 12:42:00,
2013-03-10 06:51:00,8.0,7.0,-100.00,South,180,6.0,10.0,94,0.00,,,-99.99,,2013-03-10 12:51:00,
2013-03-10 07:01:00,7.0,6.0,-100.00,SSE,155,6.0,8.0,93,0.00,,,-99.99,,2013-03-10 13:01:00,
2013-03-10 07:11:00,7.0,6.0,-100.00,SSE,150,7.0,11.0,93,0.00,,,-99.99,,2013-03-10 13:11:00,
2013-03-10 07:21:00,7.0,5.0,-100.00,South,175,4.0,9.0,93,0.00,,,-99.99,,2013-03-10 13:21:00,
2013-03-10 07:31:00,6.0,4.0,-100.00,SSE,160,6.0,9.0,93,0.00,,,-99.99,,2013-03-10 13:31:00,
2013-03-10 07:41:00,6.0,4.0,-100.00,SSE,165,4.0,10.0,93,0.00,,,-99.99,,2013-03-10 13:41:00,
2013-03-10 07:52:00,5.0,4.0,-100.00,South,190,4.0,8.0,93,0.00,,,-99.99,,2013-03-10 13:52:00,
2013-03-10 08:01:00,5.0,4.0,-100.00,SSE,160,7.0,11.0,92,0.00,,,-99.99,,2013-03-10 14:01:00,
2013-03-10 08:11:00,5.0,4.0,-100.00,South,170,4.0,9.0,92,0.00,,,-99.99,,2013-03-10 14:11:00,
2013-03-10 08:21:00,5.0,4.0,-100.00,SSE,165,4.0,9.0,92,0.00,,,-99.99,,2013-03-10 14:21:00,
2013-03-10 08:32:00,5.0,4.0,-100.00,South,180,4.0,9.0,92,0.00,,,-99.99,,2013-03-10 14:32:00,
2013-03-10 08:41:00,7.0,5.0,-100.00,SSE,165,6.0,10.0,93,0.00,,,-99.99,,2013-03-10 14:41:00,
2013-03-10 08:51:00,8.0,7.0,-100.00,South,175,4.0,9.0,93,0.00,,,-99.99,,2013-03-10 14:51:00,
2013-03-10 09:01:00,10.0,9.0,-100.00,East,90,2.0,10.0,93,0.00,,,-99.99,,2013-03-10 15:01:00,
2013-03-10 09:11:00,11.0,10.0,-100.00,SSE,155,7.0,11.0,94,0.00,,,-99.99,,2013-03-10 15:11:00,
2013-03-10 09:21:00,13.0,12.0,-100.00,South,190,3.0,12.0,94,0.00,,,-99.99,,2013-03-10 15:21:00,
2013-03-10 09:32:00,14.0,13.0,-100.00,South,180,4.0,7.0,94,0.00,,,-99.99,,2013-03-10 15:32:00,
2013-03-10 09:42:00,16.0,15.0,-100.00,SSE,155,4.0,7.0,95,0.00,,,-99.99,,2013-03-10 15:42:00,
2013-03-10 09:52:00,18.0,17.0,-100.00,South,170,3.0,9.0,95,0.00,,,-99.99,,2013-03-10 15:52:00,
2013-03-10 10:01:00,21.0,20.0,-100.00,SSE,150,2.0,7.0,95,0.00,,,-99.99,,2013-03-10 16:01:00,
2013-03-10 10:12:00,23.0,22.0,-100.00,South,180,2.0,6.0,95,0.00,,,-99.99,,2013-03-10 16:12:00,
2013-03-10 10:21:00,24.0,23.0,-100.00,SSE,160,6.0,7.0,94,0.00,,,-99.99,,2013-03-10 16:21:00,
2013-03-10 10:32:00,24.0,22.0,-100.00,SSE,150,6.0,7.0,91,0.00,,,-99.99,,2013-03-10 16:32:00,
2013-03-10 10:41:00,26.0,22.0,-100.00,SE,125,4.0,7.0,87,0.00,,,-99.99,,2013-03-10 16:41:00,
2013-03-10 10:51:00,28.0,23.0,-100.00,SSE,160,6.0,7.0,82,0.00,,,-99.99,,2013-03-10 16:51:00,
2013-03-10 11:01:00,28.0,22.0,-100.00,SSE,160,6.0,9.0,77,0.00,,,-99.99,,2013-03-10 17:01:00,
2013-03-10 11:11:00,30.0,22.0,-100.00,South,190,3.0,7.0,72,0.00,,,-99.99,,2013-03-10 17:11:00,
2013-03-10 11:21:00,31.0,22.0,-100.00,South,175,4.0,6.0,67,0.00,,,-99.99,,2013-03-10 17:21:00,
2013-03-10 11:31:00,31.0,19.0,-100.00,South,190,4.0,7.0,61,0.00,,,-99.99,,2013-03-10 17:31:00,
2013-03-10 11:41:00,31.0,18.0,-100.00,West,275,2.0,6.0,57,0.00,,,-99.99,,2013-03-10 17:41:00,
2013-03-10 11:51:00,31.0,16.0,-100.00,West,280,6.0,8.0,54,0.00,,,-99.99,,2013-03-10 17:51:00,
2013-03-10 12:01:00,31.0,17.0,-100.00,WNW,300,6.0,10.0,56,0.00,,,-99.99,,2013-03-10 18:01:00,
2013-03-10 12:11:00,31.0,17.0,-100.00,WNW,290,4.0,9.0,55,0.00,,,-99.99,,2013-03-10 18:11:00,
2013-03-10 12:21:00,32.0,16.0,-100.00,West,275,6.0,9.0,50,0.00,,,-99.99,,2013-03-10 18:21:00,
2013-03-10 12:32:00,32.0,16.0,-100.00,WNW,285,6.0,9.0,50,0.00,,,-99.99,,2013-03-10 18:32:00,
2013-03-10 12:42:00,32.0,15.0,-100.00,WNW,295,7.0,11.0,49,0.00,,,-99.99,,2013-03-10 18:42:00,
2013-03-10 12:52:00,32.0,15.0,-100.00,WNW,295,8.0,12.0,49,0.00,,,-99.99,,2013-03-10 18:52:00,
2013-03-10 13:01:00,32.0,15.0,-100.00,WNW,290,7.0,12.0,49,0.00,,,-99.99,,2013-03-10 19:01:00,
2013-03-10 13:11:00,33.0,16.0,-100.00,WNW,295,5.0,11.0,48,0.00,,,-99.99,,2013-03-10 19:11:00,
2013-03-10 13:21:00,34.0,16.0,-100.00,WNW,295,5.0,11.0,47,0.00,,,-99.99,,2013-03-10 19:21:00,
2013-03-10 13:32:00,34.0,15.0,-100.00,West,280,6.0,7.0,45,0.00,,,-99.99,,2013-03-10 19:32:00,
2013-03-10 13:42:00,33.0,14.0,-100.00,WNW,295,7.0,11.0,44,0.00,,,-99.99,,2013-03-10 19:42:00,
2013-03-10 13:52:00,34.0,14.0,-100.00,NW,320,4.0,9.0,44,0.00,,,-99.99,,2013-03-10 19:52:00,
2013-03-10 14:02:00,35.0,15.0,-100.00,NNW,330,2.0,9.0,44,0.00,,,-99.99,,2013-03-10 20:02:00,
2013-03-10 14:12:00,35.0,14.0,-100.00,NNW,330,6.0,8.0,42,0.00,,,-99.99,,2013-03-10 20:12:00,
2013-03-10 14:22:00,35.0,15.0,-100.00,NW,315,3.0,10.0,43,0.00,,,-99.99,,2013-03-10 20:22:00,
2013-03-10 14:32:00,35.0,15.0,-100.00,North,355,2.0,10.0,43,0.00,,,-99.99,,2013-03-10 20:32:00,
2013-03-10 14:42:00,35.0,15.0,-100.00,NNW,340,4.0,9.0,43,0.00,,,-99.99,,2013-03-10 20:42:00,
2013-03-10 14:52:00,36.0,16.0,-100.00,WNW,290,2.0,9.0,43,0.00,,,-99.99,,2013-03-10 20:52:00,
2013-03-10 15:02:00,36.0,17.0,-100.00,WNW,295,6.0,8.0,44,0.00,,,-99.99,,2013-03-10 21:02:00,
2013-03-10 15:12:00,36.0,16.0,-100.00,NW,305,6.0,7.0,43,0.00,,,-99.99,,2013-03-10 21:12:00,
2013-03-10 15:23:00,36.0,15.0,-100.00,West,280,6.0,10.0,42,0.00,,,-99.99,,2013-03-10 21:23:00,
2013-03-10 15:32:00,35.0,15.0,-100.00,WNW,285,6.0,9.0,41,0.00,,,-99.99,,2013-03-10 21:32:00,
2013-03-10 15:42:00,35.0,15.0,-100.00,West,280,6.0,8.0,41,0.00,,,-99.99,,2013-03-10 21:42:00,
2013-03-10 15:52:00,36.0,15.0,-100.00,WNW,285,6.0,8.0,41,0.00,,,-99.99,,2013-03-10 21:52:00,
2013-03-10 16:02:00,37.0,15.0,-100.00,WSW,250,3.0,7.0,40,0.00,,,-99.99,,2013-03-10 22:02:00,
2013-03-10 16:12:00,37.0,15.0,-100.00,West,260,2.0,7.0,39,0.00,,,-99.99,,2013-03-10 22:12:00,
2013-03-10 16:22:00,37.0,15.0,-100.00,West,265,4.0,6.0,39,0.00,,,-99.99,,2013-03-10 22:22:00,
2013-03-10 16:32:00,37.0,15.0,-100.00,WSW,250,2.0,6.0,39,0.00,,,-99.99,,2013-03-10 22:32:00,
2013-03-10 16:43:00,39.0,16.0,-100.00,West,260,2.0,6.0,38,0.00,,,-99.99,,2013-03-10 22:43:00,
2013-03-10 16:52:00,40.0,16.0,-100.00,SW,235,3.0,7.0,37,0.00,,,-99.99,,2013-03-10 22:52:00,
2013-03-10 17:03:00,40.0,16.0,-100.00,SW,220,4.0,6.0,36,0.00,,,-99.99,,2013-03-10 23:03:00,
2013-03-10 17:12:00,40.0,16.0,-100.00,SW,235,2.0,5.0,36,0.00,,,-99.99,,2013-03-10 23:12:00,
2013-03-10 17:23:00,40.0,15.0,-100.00,West,280,2.0,6.0,35,0.00,,,-99.99,,2013-03-10 23:23:00,
2013-03-10 17:32:00,41.0,16.0,-100.00,SW,230,1.0,4.0,36,0.00,,,-99.99,,2013-03-10 23:32:00,
2013-03-10 17:42:00,42.0,17.0,-100.00,SW,225,2.0,4.0,36,0.00,,,-99.99,,2013-03-10 23:42:00,
2013-03-10 17:52:00,42.0,18.0,-100.00,SW,230,2.0,4.0,38,0.00,,,-99.99,,2013-03-10 23:52:00,
2013-03-10 18:02:00,38.0,17.0,-100.00,NNW,335,0.0,2.0,40,0.00,,,-99.99,,2013-03-11 00:02:00,
2013-03-10 18:12:00,33.0,13.0,-100.00,WNW,285,2.0,3.0,43,0.00,,,-99.99,,2013-03-11 00:12:00,
2013-03-10 18:23:00,33.0,16.0,-100.00,West,280,0.0,4.0,48,0.00,,,-99.99,,2013-03-11 00:23:00,
2013-03-10 18:33:00,32.0,16.0,-100.00,SSE,160,0.0,1.0,51,0.00,,,-99.99,,2013-03-11 00:33:00,
2013-03-10 18:43:00,31.0,18.0,-100.00,South,175,0.0,0.0,56,0.00,,,-99.99,,2013-03-11 00:43:00,
2013-03-10 18:52:00,30.0,19.0,-100.00,South,180,0.0,0.0,60,0.00,,,-99.99,,2013-03-11 00:52:00,
2013-03-10 19:02:00,29.0,19.0,-100.00,South,170,2.0,3.0,65,0.00,,,-99.99,,2013-03-11 01:02:00,
2013-03-10 19:13:00,29.0,20.0,-100.00,SSE,165,0.0,3.0,68,0.00,,,-99.99,,2013-03-11 01:13:00,
2013-03-10 19:23:00,28.0,20.0,-100.00,SSE,160,0.0,0.0,72,0.00,,,-99.99,,2013-03-11 01:23:00,
2013-03-10 19:32:00,28.0,22.0,-100.00,East,90,3.0,6.0,76,0.00,,,-99.99,,2013-03-11 01:32:00,
2013-03-10 19:42:00,27.0,21.0,-100.00,SSE,165,2.0,4.0,77,0.00,,,-99.99,,2013-03-11 01:42:00,
2013-03-10 19:52:00,26.0,21.0,-100.00,SSE,165,2.0,4.0,79,0.00,,,-99.99,,2013-03-11 01:52:00,
2013-03-10 20:02:00,26.0,21.0,-100.00,South,190,4.0,6.0,81,0.00,,,-99.99,,2013-03-11 02:02:00,
2013-03-10 20:12:00,25.0,21.0,-100.00,SE,145,4.0,4.0,82,0.00,,,-99.99,,2013-03-11 02:12:00,
2013-03-10 20:22:00,25.0,20.0,-100.00,SSE,165,5.0,7.0,83,0.00,,,-99.99,,2013-03-11 02:22:00,
2013-03-10 20:32:00,25.0,21.0,-100.00,SE,145,7.0,10.0,85,0.00,,,-99.99,,2013-03-11 02:32:00,
2013-03-10 20:42:00,25.0,21.0,-100.00,ESE,105,2.0,8.0,85,0.00,,,-99.99,,2013-03-11 02:42:00,
2013-03-10 20:52:00,24.0,21.0,-100.00,SSE,150,2.0,4.0,85,0.00,,,-99.99,,2013-03-11 02:52:00,
2013-03-10 21:02:00,24.0,20.0,-100.00,SSE,150,3.0,5.0,86,0.00,,,-99.99,,2013-03-11 03:02:00,
2013-03-10 21:12:00,23.0,19.0,-100.00,SSE,160,4.0,6.0,86,0.00,,,-99.99,,2013-03-11 03:12:00,
2013-03-10 21:22:00,23.0,19.0,-100.00,SSE,160,3.0,7.0,86,0.00,,,-99.99,,2013-03-11 03:22:00,
2013-03-10 21:32:00,22.0,19.0,-100.00,SSE,160,4.0,7.0,87,0.00,,,-99.99,,2013-03-11 03:32:00,
2013-03-10 21:42:00,21.0,18.0,-100.00,SE,145,4.0,7.0,87,0.00,,,-99.99,,2013-03-11 03:42:00,
2013-03-10 21:52:00,20.0,17.0,-100.00,SSE,155,6.0,8.0,87,0.00,,,-99.99,,2013-03-11 03:52:00,
2013-03-10 22:02:00,20.0,17.0,-100.00,SSE,165,3.0,7.0,87,0.00,,,-99.99,,2013-03-11 04:02:00,
2013-03-10 22:12:00,19.0,16.0,-100.00,SSE,160,2.0,7.0,87,0.00,,,-99.99,,2013-03-11 04:12:00,
2013-03-10 22:22:00,19.0,16.0,-100.00,SSE,160,7.0,9.0,88,0.00,,,-99.99,,2013-03-11 04:22:00,
2013-03-10 22:32:00,18.0,15.0,-100.00,SSE,160,6.0,7.0,88,0.00,,,-99.99,,2013-03-11 04:32:00,
2013-03-10 22:42:00,18.0,15.0,-100.00,SSE,155,4.0,7.0,88,0.00,,,-99.99,,2013-03-11 04:42:00,
2013-03-10 22:52:00,17.0,15.0,-100.00,SSE,160,3.0,7.0,88,0.00,,,-99.99,,2013-03-11 04:52:00,
2013-03-10 23:03:00,18.0,15.0,-100.00,SSE,155,6.0,7.0,88,0.00,,,-99.99,,2013-03-11 05:03:00,
2013-03-10 23:12:00,19.0,16.0,-100.00,ESE,115,2.0,9.0,89,0.00,,,-99.99,,2013-03-11 05:12:00,
2013-03-10 23:22:00,17.0,15.0,-100.00,SSE,165,4.0,8.0,89,0.00,,,-99.99,,2013-03-11 05:22:00,
2013-03-10 23:32:00,16.0,14.0,-100.00,SSE,160,4.0,7.0,89,0.00,,,-99.99,,2013-03-11 05:32:00,
2013-03-10 23:42:00,16.0,13.0,-100.00,SSE,160,6.0,10.0,89,0.00,,,-99.99,,2013-03-11 05:42:00,
2013-03-10 23:52:00,15.0,13.0,-100.00,SSE,150,2.0,6.0,89,0.00,,,-99.99,,2013-03-11 05:52:00,